| time (UTC) | temp C | wind direction | speed KPH | gust KPH | rain 1hr cm | rain 24hr cm | rain mn cm | humidity % | barometer mb |
| 20260906083023 | 27 | 274 | 0.0 | 11.3 | 0.00 | 0.00 | 0.00 | 33 | |
| 20260906082625 | 27 | 324 | 9.7 | 11.3 | 0.00 | 0.00 | 0.00 | 34 | |
| 20260906082423 | 27 | 319 | 8.0 | 9.7 | 0.00 | 0.00 | 0.00 | 34 | |
| 20260906081823 | 27 | 302 | 0.0 | 11.3 | 0.00 | 0.00 | 0.00 | 34 | |
| 20260906081223 | 27 | 320 | 0.0 | 3.2 | 0.00 | 0.00 | 0.00 | 33 | |
| 20260906080623 | 26 | 323 | 6.4 | 12.9 | 0.00 | 0.00 | 0.00 | 33 | |
| 20260906080023 | 26 | 337 | 0.0 | 0.0 | 0.00 | 0.00 | 0.00 | 33 | |
| 20260906075423 | 26 | 39 | 6.4 | 14.5 | 0.00 | 0.00 | 0.00 | 34 | |
| 20260906074823 | 26 | 15 | 0.0 | 0.0 | 0.00 | 0.00 | 0.00 | 34 | |
| 20260906074625 | 26 | 15 | 0.0 | 11.3 | 0.00 | 0.00 | 0.00 | 34 | |
| 20260906074223 | 26 | 15 | 6.4 | 11.3 | 0.00 | 0.00 | 0.00 | 33 | |
| 20260906073623 | 26 | 168 | 0.0 | 11.3 | 0.00 | 0.00 | 0.00 | 35 | |
| 20260906073023 | 26 | 333 | 0.0 | 8.0 | 0.00 | 0.00 | 0.00 | 35 | |
| 20260906072625 | 26 | 254 | 0.0 | 8.0 | 0.00 | 0.00 | 0.00 | 35 | |
| 20260906072424 | 25 | 254 | 0.0 | 8.0 | 0.00 | 0.00 | 0.00 | 36 | |
| 20260906071823 | 25 | 310 | 0.0 | 8.0 | 0.00 | 0.00 | 0.00 | 36 | |
| 20260906071224 | 25 | 260 | 0.0 | 8.0 | 0.00 | 0.00 | 0.00 | 37 | |
| 20260906070624 | 25 | 320 | 0.0 | 0.0 | 0.00 | 0.00 | 0.00 | 39 | |
| 20260906070023 | 24 | 320 | 0.0 | 0.0 | 0.00 | 0.00 | 0.00 | 39 | |
| 20260906065424 | 24 | 320 | 0.0 | 4.8 | 0.00 | 0.00 | 0.00 | 40 | |
| 20260906064824 | 23 | 260 | 0.0 | 0.0 | 0.00 | 0.00 | 0.00 | 40 | |
| 20260906064625 | 23 | 260 | 0.0 | 0.0 | 0.00 | 0.00 | 0.00 | 42 | |
| 20260906064224 | 23 | 260 | 0.0 | 8.0 | 0.00 | 0.00 | 0.00 | 41 | |
| 20260906063624 | 23 | 302 | 0.0 | 0.0 | 0.00 | 0.00 | 0.00 | 42 | |
| 20260906063024 | 22 | 302 | 0.0 | 0.0 | 0.00 | 0.00 | 0.00 | 44 | |
| 20260906062625 | 22 | 302 | 0.0 | 0.0 | 0.00 | 0.00 | 0.00 | 45 | |
| 20260906062424 | 22 | 302 | 0.0 | 0.0 | 0.00 | 0.00 | 0.00 | 47 | |
| 20260906061824 | 22 | 302 | 0.0 | 0.0 | 0.00 | 0.00 | 0.00 | 47 | |
| 20260906061224 | 21 | 302 | 0.0 | 0.0 | 0.00 | 0.00 | 0.00 | 48 | |
| 20260906060624 | 21 | 302 | 0.0 | 0.0 | 0.00 | 0.00 | 0.00 | 49 | |
| 20260906060024 | 21 | 302 | 0.0 | 0.0 | 0.00 | 0.00 | 0.00 | 49 | |
| 20260906055424 | 21 | 302 | 0.0 | 0.0 | 0.00 | 0.00 | 0.00 | 50 | |
| 20260906054824 | 21 | 302 | 0.0 | 0.0 | 0.00 | 0.00 | 0.00 | 50 | |
| 20260906054625 | 21 | 302 | 0.0 | 0.0 | 0.00 | 0.00 | 0.00 | 50 | |
| 20260906054224 | 21 | 302 | 0.0 | 0.0 | 0.00 | 0.00 | 0.00 | 50 | |
| 20260906053624 | 21 | 302 | 0.0 | 0.0 | 0.00 | 0.00 | 0.00 | 50 | |
| 20260906053024 | 21 | 302 | 0.0 | 0.0 | 0.00 | 0.00 | 0.00 | 50 | |
| 20260906052625 | 21 | 302 | 0.0 | 0.0 | 0.00 | 0.00 | 0.00 | 50 | |
| 20260906052424 | 21 | 302 | 0.0 | 0.0 | 0.00 | 0.00 | 0.00 | 50 | |
| 20260906051824 | 21 | 302 | 0.0 | 0.0 | 0.00 | 0.00 | 0.00 | 50 | |
| 20260906051224 | 21 | 302 | 0.0 | 0.0 | 0.00 | 0.00 | 0.00 | 50 | |
| 20260906050624 | 21 | 302 | 0.0 | 0.0 | 0.00 | 0.00 | 0.00 | 50 | |
| 20260906050024 | 20 | 302 | 0.0 | 0.0 | 0.00 | 0.00 | 0.00 | 50 | |
| 20260906045424 | 20 | 302 | 0.0 | 0.0 | 0.00 | 0.00 | 0.00 | 50 | |
| 20260906044824 | 20 | 302 | 0.0 | 0.0 | 0.00 | 0.00 | 0.00 | 49 | |
| 20260906044625 | 20 | 302 | 0.0 | 0.0 | 0.00 | 0.00 | 0.00 | 49 | |
| 20260906044224 | 20 | 302 | 0.0 | 0.0 | 0.00 | 0.00 | 0.00 | 49 | |
| 20260906043624 | 20 | 302 | 0.0 | 0.0 | 0.00 | 0.00 | 0.00 | 49 | |
| 20260906043024 | 20 | 302 | 0.0 | 0.0 | 0.00 | 0.00 | 0.00 | 49 | |
| 20260906042625 | 20 | 302 | 0.0 | 0.0 | 0.00 | 0.00 | 0.00 | 49 | |
| 20260906042424 | 20 | 302 | 0.0 | 0.0 | 0.00 | 0.00 | 0.00 | 49 | |
| 20260906041824 | 20 | 302 | 0.0 | 0.0 | 0.00 | 0.00 | 0.00 | 49 | |
| 20260906041224 | 20 | 302 | 0.0 | 0.0 | 0.00 | 0.00 | 0.00 | 48 | |
| 20260906040624 | 20 | 302 | 0.0 | 0.0 | 0.00 | 0.00 | 0.00 | 48 | |
| 20260906040024 | 20 | 302 | 0.0 | 0.0 | 0.00 | 0.00 | 0.00 | 48 | |
| 20260906035424 | 20 | 302 | 0.0 | 0.0 | 0.00 | 0.00 | 0.00 | 48 | |
| 20260906034824 | 20 | 302 | 0.0 | 0.0 | 0.00 | 0.00 | 0.00 | 48 | |
| 20260906034625 | 20 | 302 | 0.0 | 0.0 | 0.00 | 0.00 | 0.00 | 48 | |
| 20260906034224 | 20 | 302 | 0.0 | 0.0 | 0.00 | 0.00 | 0.00 | 48 | |
| 20260906033624 | 20 | 302 | 0.0 | 0.0 | 0.00 | 0.00 | 0.00 | 48 | |
| 20260906033024 | 20 | 302 | 0.0 | 0.0 | 0.00 | 0.00 | 0.00 | 48 | |
| 20260906032625 | 20 | 302 | 0.0 | 0.0 | 0.00 | 0.00 | 0.00 | 48 | |
| 20260906032424 | 20 | 302 | 0.0 | 0.0 | 0.00 | 0.00 | 0.00 | 48 | |
| 20260906031824 | 20 | 302 | 0.0 | 0.0 | 0.00 | 0.00 | 0.00 | 48 | |
| 20260906031224 | 20 | 302 | 0.0 | 0.0 | 0.00 | 0.00 | 0.00 | 48 | |
| 20260906030624 | 20 | 302 | 0.0 | 0.0 | 0.00 | 0.00 | 0.00 | 48 | |
| 20260906030024 | 20 | 302 | 0.0 | 0.0 | 0.00 | 0.00 | 0.00 | 49 | |
| 20260906025424 | 20 | 302 | 0.0 | 0.0 | 0.00 | 0.00 | 0.00 | 49 | |
| 20260906024824 | 20 | 302 | 0.0 | 0.0 | 0.00 | 0.00 | 0.00 | 49 | |
| 20260906024625 | 20 | 302 | 0.0 | 0.0 | 0.00 | 0.00 | 0.00 | 49 | |
| 20260906024224 | 20 | 302 | 0.0 | 0.0 | 0.00 | 0.00 | 0.00 | 49 | |
| 20260906023624 | 20 | 302 | 0.0 | 0.0 | 0.00 | 0.00 | 0.00 | 48 | |
| 20260906023024 | 20 | 302 | 0.0 | 0.0 | 0.00 | 0.00 | 0.00 | 48 | |
| 20260906022625 | 20 | 302 | 0.0 | 0.0 | 0.00 | 0.00 | 0.00 | 48 | |
| 20260906022424 | 20 | 302 | 0.0 | 0.0 | 0.00 | 0.00 | 0.00 | 48 | |
| 20260906021824 | 20 | 302 | 0.0 | 0.0 | 0.00 | 0.00 | 0.00 | 48 | |
| 20260906021224 | 20 | 302 | 0.0 | 0.0 | 0.00 | 0.00 | 0.00 | 49 | |
| 20260906020624 | 20 | 302 | 0.0 | 0.0 | 0.00 | 0.00 | 0.00 | 49 | |
| 20260906020024 | 21 | 302 | 0.0 | 0.0 | 0.00 | 0.00 | 0.00 | 48 | |
| 20260906015424 | 20 | 302 | 0.0 | 0.0 | 0.00 | 0.00 | 0.00 | 48 | |
| 20260906014824 | 21 | 302 | 0.0 | 0.0 | 0.00 | 0.00 | 0.00 | 48 | |
| 20260906014224 | 21 | 302 | 0.0 | 0.0 | 0.00 | 0.00 | 0.00 | 48 | |
| 20260906013624 | 21 | 302 | 0.0 | 0.0 | 0.00 | 0.00 | 0.00 | 48 | |
| 20260906013024 | 21 | 302 | 0.0 | 0.0 | 0.00 | 0.00 | 0.00 | 48 | |
| 20260906012424 | 21 | 302 | 0.0 | 0.0 | 0.00 | 0.00 | 0.00 | 48 | |
| 20260906011824 | 21 | 302 | 0.0 | 0.0 | 0.00 | 0.00 | 0.00 | 49 | |
| 20260906011224 | 21 | 302 | 0.0 | 0.0 | 0.00 | 0.00 | 0.00 | 49 | |
| 20260906010624 | 21 | 302 | 0.0 | 0.0 | 0.00 | 0.00 | 0.00 | 49 | |
| 20260906010024 | 21 | 302 | 0.0 | 0.0 | 0.00 | 0.00 | 0.00 | 49 | |
| 20260906005424 | 21 | 302 | 0.0 | 0.0 | 0.00 | 0.00 | 0.00 | 50 | |
| 20260906004824 | 21 | 302 | 0.0 | 0.0 | 0.00 | 0.00 | 0.00 | 50 | |
| 20260906004625 | 21 | 302 | 0.0 | 0.0 | 0.00 | 0.00 | 0.00 | 50 | |
| 20260906004224 | 21 | 302 | 0.0 | 0.0 | 0.00 | 0.00 | 0.00 | 50 | |
| 20260906003624 | 21 | 302 | 0.0 | 0.0 | 0.00 | 0.00 | 0.00 | 50 | |
| 20260906003024 | 21 | 302 | 0.0 | 0.0 | 0.00 | 0.00 | 0.00 | 50 | |
| 20260906002625 | 21 | 302 | 0.0 | 0.0 | 0.00 | 0.00 | 0.00 | 50 | |
| 20260906002424 | 21 | 302 | 0.0 | 0.0 | 0.00 | 0.00 | 0.00 | 50 | |
| 20260906001824 | 21 | 302 | 0.0 | 0.0 | 0.00 | 0.00 | 0.00 | 50 | |
| 20260906001224 | 21 | 302 | 0.0 | 0.0 | 0.00 | 0.00 | 0.00 | 50 | |
| 20260906000624 | 21 | 302 | 0.0 | 0.0 | 0.00 | 0.00 | 0.00 | 51 | |
| 20260906000024 | 21 | 302 | 0.0 | 0.0 | 0.00 | 0.00 | 0.00 | 51 | |
| 20260905235424 | 21 | 302 | 0.0 | 0.0 | 0.00 | 0.00 | 0.00 | 51 | |
| 20260905234824 | 21 | 302 | 0.0 | 0.0 | 0.00 | 0.00 | 0.00 | 51 | |
| 20260905234625 | 21 | 302 | 0.0 | 0.0 | 0.00 | 0.00 | 0.00 | 51 | |
| 20260905234224 | 21 | 302 | 0.0 | 0.0 | 0.00 | 0.00 | 0.00 | 52 | |
| 20260905233624 | 21 | 302 | 0.0 | 0.0 | 0.00 | 0.00 | 0.00 | 51 | |
| 20260905233024 | 21 | 302 | 0.0 | 0.0 | 0.00 | 0.00 | 0.00 | 52 | |
| 20260905232625 | 21 | 302 | 0.0 | 0.0 | 0.00 | 0.00 | 0.00 | 52 | |
| 20260905232424 | 21 | 302 | 0.0 | 0.0 | 0.00 | 0.00 | 0.00 | 52 | |
| 20260905231824 | 21 | 302 | 0.0 | 0.0 | 0.00 | 0.00 | 0.00 | 52 | |
| 20260905231224 | 21 | 302 | 0.0 | 0.0 | 0.00 | 0.00 | 0.00 | 52 | |
| 20260905230624 | 21 | 302 | 0.0 | 0.0 | 0.00 | 0.00 | 0.00 | 52 | |
| 20260905230024 | 21 | 302 | 0.0 | 0.0 | 0.00 | 0.00 | 0.00 | 52 | |
| 20260905225424 | 21 | 302 | 0.0 | 0.0 | 0.00 | 0.00 | 0.00 | 52 | |
| 20260905224824 | 21 | 302 | 0.0 | 0.0 | 0.00 | 0.00 | 0.00 | 52 | |
| 20260905224626 | 21 | 302 | 0.0 | 0.0 | 0.00 | 0.00 | 0.00 | 52 | |
| 20260905224224 | 21 | 302 | 0.0 | 0.0 | 0.00 | 0.00 | 0.00 | 52 | |
| 20260905223624 | 21 | 302 | 0.0 | 0.0 | 0.00 | 0.00 | 0.00 | 53 | |
| 20260905223024 | 21 | 302 | 0.0 | 0.0 | 0.00 | 0.00 | 0.00 | 53 | |
| 20260905222626 | 21 | 302 | 0.0 | 0.0 | 0.00 | 0.00 | 0.00 | 52 | |
| 20260905222424 | 21 | 302 | 0.0 | 0.0 | 0.00 | 0.00 | 0.00 | 52 | |
| 20260905221824 | 21 | 302 | 0.0 | 0.0 | 0.00 | 0.00 | 0.00 | 52 | |
| 20260905221224 | 21 | 302 | 0.0 | 0.0 | 0.00 | 0.00 | 0.00 | 52 | |
| 20260905220624 | 21 | 302 | 0.0 | 0.0 | 0.00 | 0.00 | 0.00 | 52 | |
| 20260905220024 | 21 | 302 | 0.0 | 0.0 | 0.00 | 0.00 | 0.00 | 52 | |
| 20260905215424 | 21 | 302 | 0.0 | 0.0 | 0.00 | 0.00 | 0.00 | 52 | |
| 20260905214824 | 21 | 302 | 0.0 | 0.0 | 0.00 | 0.00 | 0.00 | 52 | |
| 20260905214626 | 21 | 302 | 0.0 | 0.0 | 0.00 | 0.00 | 0.00 | 52 | |
| 20260905214224 | 21 | 302 | 0.0 | 0.0 | 0.00 | 0.00 | 0.00 | 51 | |
| 20260905213624 | 21 | 302 | 0.0 | 0.0 | 0.00 | 0.00 | 0.00 | 51 | |
| 20260905213024 | 21 | 302 | 0.0 | 0.0 | 0.00 | 0.00 | 0.00 | 51 | |
| 20260905212626 | 22 | 302 | 0.0 | 0.0 | 0.00 | 0.00 | 0.00 | 51 | |
| 20260905212424 | 22 | 302 | 0.0 | 0.0 | 0.00 | 0.00 | 0.00 | 51 | |
| 20260905211824 | 22 | 302 | 0.0 | 0.0 | 0.00 | 0.00 | 0.00 | 51 | |
| 20260905211224 | 22 | 302 | 0.0 | 0.0 | 0.00 | 0.00 | 0.00 | 51 | |
| 20260905210624 | 22 | 302 | 0.0 | 0.0 | 0.00 | 0.00 | 0.00 | 50 | |
| 20260905210025 | 22 | 302 | 0.0 | 0.0 | 0.00 | 0.00 | 0.00 | 50 | |
| 20260905205425 | 22 | 302 | 0.0 | 0.0 | 0.00 | 0.00 | 0.00 | 50 | |
| 20260905204824 | 22 | 302 | 0.0 | 0.0 | 0.00 | 0.00 | 0.00 | 50 | |
| 20260905204224 | 22 | 302 | 0.0 | 0.0 | 0.00 | 0.00 | 0.00 | 49 | |
| 20260905203624 | 22 | 302 | 0.0 | 0.0 | 0.00 | 0.00 | 0.00 | 49 | |
| 20260905203025 | 22 | 302 | 0.0 | 0.0 | 0.00 | 0.00 | 0.00 | 49 | |
| 20260905202626 | 22 | 302 | 0.0 | 0.0 | 0.00 | 0.00 | 0.00 | 49 | |
| 20260905202425 | 22 | 302 | 0.0 | 0.0 | 0.00 | 0.00 | 0.00 | 49 | |
| 20260905201825 | 22 | 302 | 0.0 | 0.0 | 0.00 | 0.00 | 0.00 | 49 | |
| 20260905201225 | 22 | 302 | 0.0 | 0.0 | 0.00 | 0.00 | 0.00 | 49 | |
| 20260905200625 | 22 | 302 | 0.0 | 0.0 | 0.00 | 0.00 | 0.00 | 48 | |
| 20260905200025 | 22 | 302 | 0.0 | 0.0 | 0.00 | 0.00 | 0.00 | 48 | |
| 20260905195425 | 22 | 302 | 0.0 | 0.0 | 0.00 | 0.00 | 0.00 | 48 | |
| 20260905194825 | 23 | 302 | 0.0 | 0.0 | 0.00 | 0.00 | 0.00 | 48 | |
| 20260905194626 | 23 | 302 | 0.0 | 0.0 | 0.00 | 0.00 | 0.00 | 48 | |
| 20260905194225 | 23 | 302 | 0.0 | 0.0 | 0.00 | 0.00 | 0.00 | 48 | |
| 20260905193625 | 23 | 302 | 0.0 | 0.0 | 0.00 | 0.00 | 0.00 | 48 | |
| 20260905193025 | 23 | 302 | 0.0 | 0.0 | 0.00 | 0.00 | 0.00 | 48 | |
| 20260905192425 | 23 | 302 | 0.0 | 0.0 | 0.00 | 0.00 | 0.00 | 48 | |
| 20260905191825 | 23 | 302 | 0.0 | 0.0 | 0.00 | 0.00 | 0.00 | 47 | |
| 20260905191225 | 23 | 302 | 0.0 | 0.0 | 0.00 | 0.00 | 0.00 | 48 | |
| 20260905190625 | 23 | 302 | 0.0 | 0.0 | 0.00 | 0.00 | 0.00 | 48 | |
| 20260905190025 | 23 | 302 | 0.0 | 0.0 | 0.00 | 0.00 | 0.00 | 48 | |
| 20260905185425 | 23 | 302 | 0.0 | 0.0 | 0.00 | 0.00 | 0.00 | 48 | |
| 20260905184825 | 23 | 302 | 0.0 | 0.0 | 0.00 | 0.00 | 0.00 | 48 | |
| 20260905184626 | 23 | 302 | 0.0 | 0.0 | 0.00 | 0.00 | 0.00 | 48 | |
| 20260905184225 | 23 | 302 | 0.0 | 0.0 | 0.00 | 0.00 | 0.00 | 48 | |
| 20260905183625 | 23 | 302 | 0.0 | 0.0 | 0.00 | 0.00 | 0.00 | 47 | |
| 20260905183025 | 23 | 302 | 0.0 | 0.0 | 0.00 | 0.00 | 0.00 | 47 | |
| 20260905182626 | 23 | 302 | 0.0 | 0.0 | 0.00 | 0.00 | 0.00 | 46 | |
| 20260905182425 | 23 | 302 | 0.0 | 0.0 | 0.00 | 0.00 | 0.00 | 46 | |
| 20260905181825 | 23 | 302 | 0.0 | 0.0 | 0.00 | 0.00 | 0.00 | 46 | |
| 20260905181225 | 23 | 302 | 0.0 | 0.0 | 0.00 | 0.00 | 0.00 | 45 | |
| 20260905180625 | 24 | 302 | 0.0 | 0.0 | 0.00 | 0.00 | 0.00 | 45 | |
| 20260905180025 | 24 | 302 | 0.0 | 0.0 | 0.00 | 0.00 | 0.00 | 44 | |
| 20260905175425 | 24 | 302 | 0.0 | 0.0 | 0.00 | 0.00 | 0.00 | 44 | |
| 20260905174825 | 24 | 302 | 0.0 | 0.0 | 0.00 | 0.00 | 0.00 | 43 | |
| 20260905174626 | 24 | 302 | 0.0 | 0.0 | 0.00 | 0.00 | 0.00 | 43 | |
| 20260905174225 | 25 | 302 | 0.0 | 0.0 | 0.00 | 0.00 | 0.00 | 43 | |
| 20260905173625 | 25 | 302 | 0.0 | 0.0 | 0.00 | 0.00 | 0.00 | 43 | |
| 20260905173025 | 25 | 302 | 0.0 | 0.0 | 0.00 | 0.00 | 0.00 | 42 | |
| 20260905172626 | 25 | 302 | 0.0 | 0.0 | 0.00 | 0.00 | 0.00 | 42 | |
| 20260905172425 | 25 | 302 | 0.0 | 0.0 | 0.00 | 0.00 | 0.00 | 42 | |
| 20260905171825 | 25 | 302 | 0.0 | 0.0 | 0.00 | 0.00 | 0.00 | 42 | |
| 20260905171225 | 25 | 302 | 0.0 | 0.0 | 0.00 | 0.00 | 0.00 | 41 | |
| 20260905170625 | 26 | 302 | 0.0 | 0.0 | 0.00 | 0.00 | 0.00 | 41 | |
| 20260905170025 | 26 | 302 | 0.0 | 0.0 | 0.00 | 0.00 | 0.00 | 40 | |
| 20260905165425 | 26 | 302 | 0.0 | 0.0 | 0.00 | 0.00 | 0.00 | 40 | |
| 20260905164825 | 26 | 302 | 0.0 | 0.0 | 0.00 | 0.00 | 0.00 | 40 | |
| 20260905164225 | 27 | 302 | 0.0 | 0.0 | 0.00 | 0.00 | 0.00 | 39 | |
| 20260905163625 | 27 | 302 | 0.0 | 0.0 | 0.00 | 0.00 | 0.00 | 38 | |
| 20260905163025 | 28 | 302 | 0.0 | 0.0 | 0.00 | 0.00 | 0.00 | 37 | |
| 20260905162425 | 28 | 302 | 0.0 | 0.0 | 0.00 | 0.00 | 0.00 | 36 | |
| 20260905161825 | 28 | 302 | 0.0 | 0.0 | 0.00 | 0.00 | 0.00 | 36 | |
| 20260905161225 | 28 | 302 | 0.0 | 0.0 | 0.00 | 0.00 | 0.00 | 36 | |
| 20260905160625 | 28 | 302 | 0.0 | 0.0 | 0.00 | 0.00 | 0.00 | 35 | |
| 20260905160025 | 28 | 302 | 0.0 | 0.0 | 0.00 | 0.00 | 0.00 | 35 | |
| 20260905155425 | 28 | 302 | 0.0 | 4.8 | 0.00 | 0.00 | 0.00 | 35 | |
| 20260905154825 | 28 | 340 | 0.0 | 3.2 | 0.00 | 0.00 | 0.00 | 34 | |
| 20260905154626 | 28 | 312 | 0.0 | 0.0 | 0.00 | 0.00 | 0.00 | 35 | |
| 20260905154225 | 28 | 312 | 0.0 | 0.0 | 0.00 | 0.00 | 0.00 | 35 | |
| 20260905153625 | 28 | 312 | 0.0 | 0.0 | 0.00 | 0.00 | 0.00 | 35 | |
| 20260905153025 | 28 | 312 | 0.0 | 3.2 | 0.00 | 0.00 | 0.00 | 36 | |
| 20260905152626 | 28 | 295 | 0.0 | 6.4 | 0.00 | 0.00 | 0.00 | 35 | |
| 20260905152425 | 28 | 288 | 0.0 | 6.4 | 0.00 | 0.00 | 0.00 | 35 | |
| 20260905151825 | 28 | 277 | 0.0 | 6.4 | 0.00 | 0.00 | 0.00 | 34 | |
| 20260905151225 | 28 | 264 | 0.0 | 1.6 | 0.00 | 0.00 | 0.00 | 33 | |
| 20260905150625 | 29 | 0 | 0.0 | 6.4 | 0.00 | 0.00 | 0.00 | 32 | |
| 20260905150025 | 29 | 295 | 0.0 | 4.8 | 0.00 | 0.00 | 0.00 | 32 | |
| 20260905145425 | 30 | 220 | 0.0 | 3.2 | 0.00 | 0.00 | 0.00 | 30 | |
| 20260905144825 | 30 | 302 | 9.7 | 9.7 | 0.00 | 0.00 | 0.00 | 29 | |
| 20260905144626 | 30 | 282 | 6.4 | 6.4 | 0.00 | 0.00 | 0.00 | 30 | |
| 20260905144226 | 30 | 282 | 0.0 | 8.0 | 0.00 | 0.00 | 0.00 | 29 | |
| 20260905143625 | 31 | 19 | 0.0 | 8.0 | 0.00 | 0.00 | 0.00 | 28 | |
| 20260905143025 | 31 | 347 | 0.0 | 9.7 | 0.00 | 0.00 | 0.00 | 27 | |
| 20260905142626 | 32 | 358 | 0.0 | 4.8 | 0.00 | 0.00 | 0.00 | 26 | |
| 20260905142425 | 32 | 358 | 0.0 | 4.8 | 0.00 | 0.00 | 0.00 | 26 | |
| 20260905141825 | 32 | 322 | 0.0 | 9.7 | 0.00 | 0.00 | 0.00 | 25 | |
| 20260905141225 | 31 | 352 | 6.4 | 12.9 | 0.00 | 0.00 | 0.00 | 26 | |
| 20260905140625 | 31 | 309 | 0.0 | 9.7 | 0.00 | 0.00 | 0.00 | 27 | |
| 20260905140025 | 30 | 296 | 0.0 | 9.7 | 0.00 | 0.00 | 0.00 | 28 | |
| 20260905135425 | 30 | 334 | 0.0 | 6.4 | 0.00 | 0.00 | 0.00 | 28 | |
| 20260905134825 | 28 | 4 | 0.0 | 8.0 | 0.00 | 0.00 | 0.00 | 30 | |
| 20260905134626 | 28 | 25 | 0.0 | 0.0 | 0.00 | 0.00 | 0.00 | 31 | |
| 20260905134225 | 28 | 25 | 0.0 | 9.7 | 0.00 | 0.00 | 0.00 | 31 | |
| 20260905133625 | 28 | 174 | 0.0 | 9.7 | 0.00 | 0.00 | 0.00 | 31 | |
| 20260905133025 | 28 | 286 | 3.2 | 9.7 | 0.00 | 0.00 | 0.00 | 32 | |
| 20260905132626 | 28 | 272 | 0.0 | 11.3 | 0.00 | 0.00 | 0.00 | 32 | |
| 20260905132425 | 28 | 358 | 4.8 | 11.3 | 0.00 | 0.00 | 0.00 | 33 | |
| 20260905131825 | 28 | 56 | 0.0 | 6.4 | 0.00 | 0.00 | 0.00 | 33 | |
| 20260905131225 | 28 | 284 | 0.0 | 12.9 | 0.00 | 0.00 | 0.00 | 32 | |
| 20260905130625 | 28 | 351 | 4.8 | 19.3 | 0.00 | 0.00 | 0.00 | 33 | |
| 20260905130025 | 28 | 348 | 6.4 | 9.7 | 0.00 | 0.00 | 0.00 | 32 | |
| 20260905125425 | 28 | 331 | 6.4 | 12.9 | 0.00 | 0.00 | 0.00 | 33 | |
| 20260905124826 | 28 | 279 | 0.0 | 11.3 | 0.00 | 0.00 | 0.00 | 33 | |
| 20260905124627 | 28 | 330 | 0.0 | 11.3 | 0.00 | 0.00 | 0.00 | 33 | |
| 20260905124225 | 28 | 132 | 0.0 | 11.3 | 0.00 | 0.00 | 0.00 | 32 | |
| 20260905123625 | 28 | 185 | 4.8 | 9.7 | 0.00 | 0.00 | 0.00 | 33 | |
| 20260905123025 | 28 | 355 | 6.4 | 14.5 | 0.00 | 0.00 | 0.00 | 33 | |
| 20260905122626 | 28 | 208 | 4.8 | 14.5 | 0.00 | 0.00 | 0.00 | 32 | |
| 20260905122425 | 28 | 336 | 0.0 | 11.3 | 0.00 | 0.00 | 0.00 | 32 | |
| 20260905121825 | 28 | 322 | 0.0 | 12.9 | 0.00 | 0.00 | 0.00 | 31 | |
| 20260905121225 | 27 | 248 | 0.0 | 12.9 | 0.00 | 0.00 | 0.00 | 33 | |
| 20260905120625 | 27 | 282 | 0.0 | 9.7 | 0.00 | 0.00 | 0.00 | 33 | |
| 20260905120025 | 27 | 330 | 8.0 | 11.3 | 0.00 | 0.00 | 0.00 | 33 | |
| 20260905115425 | 27 | 358 | 0.0 | 6.4 | 0.00 | 0.00 | 0.00 | 34 | |
| 20260905114825 | 27 | 42 | 0.0 | 9.7 | 0.00 | 0.00 | 0.00 | 34 | |
| 20260905114627 | 27 | 278 | 0.0 | 8.0 | 0.00 | 0.00 | 0.00 | 34 | |
| 20260905114225 | 27 | 350 | 0.0 | 8.0 | 0.00 | 0.00 | 0.00 | 34 | |
| 20260905113625 | 27 | 288 | 0.0 | 4.8 | 0.00 | 0.00 | 0.00 | 35 | |
| 20260905113025 | 27 | 324 | 0.0 | 8.0 | 0.00 | 0.00 | 0.00 | 35 | |
| 20260905112627 | 27 | 282 | 0.0 | 6.4 | 0.00 | 0.00 | 0.00 | 35 | |
| 20260905112425 | 27 | 282 | 0.0 | 8.0 | 0.00 | 0.00 | 0.00 | 35 | |
| 20260905111825 | 27 | 347 | 0.0 | 9.7 | 0.00 | 0.00 | 0.00 | 34 | |
| 20260905111225 | 27 | 327 | 8.0 | 8.0 | 0.00 | 0.00 | 0.00 | 35 | |
| 20260905110625 | 27 | 127 | 0.0 | 9.7 | 0.00 | 0.00 | 0.00 | 35 | |
| 20260905110025 | 27 | 102 | 0.0 | 6.4 | 0.00 | 0.00 | 0.00 | 36 | |
| 20260905105425 | 27 | 267 | 0.0 | 0.0 | 0.00 | 0.00 | 0.00 | 35 | |
| 20260905104825 | 26 | 26 | 6.4 | 11.3 | 0.00 | 0.00 | 0.00 | 35 | |
| 20260905104627 | 26 | 68 | 0.0 | 0.0 | 0.00 | 0.00 | 0.00 | 37 | |
| 20260905104225 | 26 | 68 | 0.0 | 4.8 | 0.00 | 0.00 | 0.00 | 37 | |
| 20260905103625 | 26 | 68 | 0.0 | 6.4 | 0.00 | 0.00 | 0.00 | 37 | |
| 20260905103026 | 26 | 36 | 3.2 | 14.5 | 0.00 | 0.00 | 0.00 | 37 | |
| 20260905102627 | 26 | 352 | 0.0 | 16.1 | 0.00 | 0.00 | 0.00 | 38 | |
| 20260905102425 | 26 | 270 | 4.8 | 12.9 | 0.00 | 0.00 | 0.00 | 38 | |
| 20260905101825 | 26 | 164 | 0.0 | 4.8 | 0.00 | 0.00 | 0.00 | 38 | |
| 20260905101226 | 26 | 164 | 0.0 | 6.4 | 0.00 | 0.00 | 0.00 | 38 | |
| 20260905100625 | 26 | 149 | 0.0 | 9.7 | 0.00 | 0.00 | 0.00 | 38 | |
| 20260905100026 | 26 | 33 | 0.0 | 11.3 | 0.00 | 0.00 | 0.00 | 37 | |
| 20260905095426 | 26 | 262 | 4.8 | 9.7 | 0.00 | 0.00 | 0.00 | 38 | |
| 20260905094826 | 26 | 30 | 0.0 | 8.0 | 0.00 | 0.00 | 0.00 | 38 | |
| 20260905094627 | 26 | 1 | 0.0 | 6.4 | 0.00 | 0.00 | 0.00 | 38 | |
| 20260905094226 | 26 | 66 | 0.0 | 11.3 | 0.00 | 0.00 | 0.00 | 38 | |
| 20260905093626 | 25 | 275 | 0.0 | 6.4 | 0.00 | 0.00 | 0.00 | 38 | |
| 20260905093026 | 25 | 295 | 9.7 | 12.9 | 0.00 | 0.00 | 0.00 | 38 | |
| 20260905092627 | 25 | 296 | 0.0 | 9.7 | 0.00 | 0.00 | 0.00 | 38 | |
| 20260905092426 | 25 | 307 | 8.0 | 9.7 | 0.00 | 0.00 | 0.00 | 37 | |
| 20260905091826 | 25 | 327 | 9.7 | 9.7 | 0.00 | 0.00 | 0.00 | 38 | |
| 20260905091226 | 25 | 354 | 12.9 | 12.9 | 0.00 | 0.00 | 0.00 | 40 | |
| 20260905090626 | 25 | 358 | 0.0 | 12.9 | 0.00 | 0.00 | 0.00 | 39 | |
| 20260905090026 | 25 | 300 | 9.7 | 17.7 | 0.00 | 0.00 | 0.00 | 39 | |
| 20260905085426 | 25 | 358 | 0.0 | 8.0 | 0.00 | 0.00 | 0.00 | 40 | |
| 20260905084826 | 24 | 277 | 0.0 | 11.3 | 0.00 | 0.00 | 0.00 | 40 | |
| 20260905084226 | 24 | 281 | 6.4 | 9.7 | 0.00 | 0.00 | 0.00 | 40 | |
| 20260905083628 | 24 | 336 | 6.4 | 11.3 | 0.00 | 0.00 | 0.00 | 39 |